Flag for United Kingdom Weather past 2 weeks in Horsham, England, United Kingdom

Now
77 °F

Sunny.


Feels Like: 78 °F
Forecast: 61 / 78 °F
Wind: 14 mph from East

Location: London / Gatwick Airport

Current Time: Jul 24, 2014 at 7:34:49 PM

Latest Report: Jul 24, 2014 at 6:50 PM


Visibility: 10 mi

Pressure: 30.01 "Hg

Humidity: 36%

Dew point: 48 °F

Location of HorshamLocation

Historic Weather in Horsham — Graph

°F

Horsham temperature yesterday

Maximum temperature yesterday: 82 °F (at 3:20 PM)
Minimum temperature yesterday: 61 °F (at 3:50 AM)
Average temperature yesterday: 71 °F

Past Weeks' High & Low Weather Summary

 TemperatureHumidityPressure
High82 °F (Jul 17, 2:50 PM)100% (Jul 11, 4:20 AM)30.21 "Hg (Jul 11, 4:20 AM)
Low52 °F (Jul 11, 3:50 AM)34% (Jul 24, 5:50 PM)29.74 "Hg (Jul 13, 10:50 AM)
Average68 °F74%30.00 "Hg
* Reported Jul 9 6:20 PM — Jul 24 6:20 PM, Horsham, Weather by CustomWeather, © 2014

Note: Actual official high and low records may vary slightly from our data, if they occured in-between our weather recording intervals... More about our weather records

Advertising

Horsham weather history for previous 24 hours

 ConditionsComfort  
Time TempWeatherWind HumidityBarometerVisibility
6:20 PM
Jul 24
79 °FSunny.14 mph34%30.01 "Hg10 mi
5:50 PM79 °FSunny.15 mph34%30.01 "Hg10 mi
5:20 PM81 °FSunny.16 mph37%30.01 "Hg10 mi
4:50 PM81 °FSunny.16 mph39%30.01 "Hg10 mi
4:20 PM82 °FSunny.16 mph37%30.01 "Hg10 mi
3:50 PM82 °FSunny.14 mph42%30.01 "Hg10 mi
3:20 PM82 °FPassing clouds.13 mph42%30.01 "HgN/A
2:50 PM82 °FSunny.14 mph42%30.01 "Hg10 mi
2:20 PM82 °FSunny.14 mph42%30.01 "Hg10 mi
1:50 PM81 °FPassing clouds.14 mph48%30.01 "HgN/A
1:20 PM82 °FPassing clouds.10 mph48%30.04 "HgN/A
12:50 PM81 °FPassing clouds.12 mph51%30.04 "HgN/A
12:20 PM81 °FPassing clouds.12 mph51%30.04 "HgN/A
11:50 AM79 °FPassing clouds.14 mph54%30.04 "HgN/A
11:20 AM79 °FPassing clouds.12 mph54%30.04 "HgN/A
10:50 AM77 °FPassing clouds.9 mph57%30.04 "HgN/A
10:20 AM75 °FPassing clouds.8 mph65%30.04 "HgN/A
9:50 AM73 °FPassing clouds.8 mph69%30.04 "HgN/A
9:20 AM72 °FPassing clouds.7 mph69%30.04 "HgN/A
8:50 AM70 °FSunny.10 mph73%30.04 "Hg10 mi
8:20 AM68 °FPassing clouds.10 mph78%30.04 "HgN/A
7:50 AM66 °FSunny.8 mph83%30.04 "Hg10 mi
7:20 AM64 °FSunny.7 mph83%30.04 "Hg10 mi
6:50 AM63 °FPassing clouds.9 mph88%30.04 "HgN/A
6:20 AM63 °FPassing clouds.7 mph83%30.04 "HgN/A
5:50 AM63 °FClear.7 mph83%30.04 "Hg10 mi
5:20 AM63 °FClear.8 mph83%30.04 "Hg10 mi
4:50 AM63 °FClear.8 mph83%30.04 "Hg10 mi
4:20 AM63 °FClear.7 mph83%30.04 "Hg10 mi
3:50 AM64 °FClear.7 mph83%30.04 "Hg10 mi
3:20 AM64 °FClear.3 mph83%30.04 "Hg10 mi
2:50 AM64 °FPassing clouds.5 mph83%30.04 "HgN/A
2:20 AM66 °FClear.5 mph78%30.04 "Hg10 mi
1:50 AM66 °FClear.5 mph78%30.04 "Hg10 mi
1:20 AM66 °FClear.7 mph78%30.04 "Hg10 mi
12:50 AM66 °FClear.6 mph78%30.07 "Hg10 mi
12:20 AM66 °FClear.7 mph83%30.07 "Hg10 mi
11:50 PM
Jul 23
68 °FClear.7 mph78%30.07 "Hg10 mi
11:20 PM68 °FClear.8 mph78%30.07 "Hg10 mi
10:50 PM68 °FClear.8 mph78%30.07 "Hg10 mi
10:20 PM70 °FClear.10 mph73%30.07 "Hg10 mi
9:50 PM70 °FPassing clouds.12 mph73%30.07 "HgN/A
9:20 PM72 °FSunny.8 mph65%30.07 "Hg10 mi
8:50 PM73 °FSunny.10 mph65%30.04 "Hg10 mi
8:20 PM73 °FSunny.13 mph65%30.04 "Hg10 mi
7:50 PM75 °FSunny.14 mph61%30.04 "Hg10 mi
7:20 PM77 °FSunny.13 mph57%30.04 "Hg10 mi
Weather by CustomWeather, © 2014

See weather overviewHow to use our weather pages